Greensboro, GA

11:08 PM EST on February 21, 2018 (GMT -0500)
Greensboro

Weather History for K3J7 - December, 2013

Change the Weather History Date:

Friday, December 13, 2013

  Actual Average (KDBN) Record (KDBN)
Temperature  
Mean Temperature 40 °F -  
Max Temperature 55 °F 61 °F 82 °F (1931)
Min Temperature 26 °F 37 °F 10 °F (1962)
Degree Days  
Heating Degree Days 24    
Moisture  
Dew Point 28 °F    
Average Humidity 62    
Maximum Humidity 93    
Minimum Humidity 31    
Precipitation  
Precipitation 0.00 in - - ()
Sea Level Pressure  
Sea Level Pressure 30.27 in    
Wind  
Wind Speed 1 mph (SE)    
Max Wind Speed 8 mph    
Max Gust Speed -    
Visibility 10 miles    
Events      
Averages and records for this station are not official NWS values.
T = Trace of Precipitation, MM = Missing Value Source: NWS Daily Summary

Daily Weather History Graph

Daily Weather History Graph

Search for Another Location

Airport or City:

Trip Planner

Search our weather history database for the weather conditions in past years. The results will help you decide how hot, cold, wet, or windy it might be!

Date:

Astronomy

Dec. 13, 2013 Rise Set
Actual Time 7:28 AM EST 5:25 PM EST
Civil Twilight 7:00 AM EST 5:52 PM EST
Nautical Twilight 6:29 AM EST 6:24 PM EST
Astronomical Twilight 5:59 AM EST 6:54 PM EST
Moon 3:01 PM EST (12/13) 3:57 AM EST (12/13)
Length of Visible Light 10h 52m
Length of Day
9h 56m
Waxing Gibbous, 88% of the Moon is Illuminated
Dec 13
Waxing Gibbous
Dec 17
Full
Dec 25
Last Quarter
Jan 1
New
Jan 7
First Quarter

Hourly Weather History & Observations

Time (EST) Temp. Windchill Dew Point Humidity Pressure Visibility Wind Dir Wind Speed Gust Speed Precip Events Conditions
12:15 AM 32.0 °F - 24.8 °F 75% 30.33 in 10.0 mi Calm Calm - N/A   Clear
12:35 AM 32.0 °F - 26.6 °F 80% 30.33 in 10.0 mi Calm Calm - N/A   Clear
12:55 AM 32.0 °F - 26.6 °F 80% 30.33 in 10.0 mi Calm Calm - N/A   Clear
1:15 AM 32.0 °F - 24.8 °F 75% 30.33 in 10.0 mi Calm Calm - N/A   Clear
1:35 AM 32.0 °F - 24.8 °F 75% 30.33 in 10.0 mi Calm Calm - N/A   Clear
1:55 AM 32.0 °F - 23.0 °F 69% 30.33 in 10.0 mi Calm Calm - N/A   Clear
2:15 AM 32.0 °F - 23.0 °F 69% 30.32 in 10.0 mi Calm Calm - N/A   Clear
2:35 AM 30.2 °F - 24.8 °F 80% 30.31 in 10.0 mi Calm Calm - N/A   Clear
2:55 AM 30.2 °F - 26.6 °F 86% 30.31 in 10.0 mi Calm Calm - N/A   Clear
3:15 AM 30.2 °F - 24.8 °F 80% 30.32 in 10.0 mi Calm Calm - N/A   Clear
3:35 AM 30.2 °F - 26.6 °F 86% 30.32 in 10.0 mi Calm Calm - N/A   Clear
3:55 AM 30.2 °F - 26.6 °F 86% 30.32 in 10.0 mi Calm Calm - N/A   Clear
4:15 AM 30.2 °F - 24.8 °F 80% 30.31 in 10.0 mi Calm Calm - N/A   Clear
4:35 AM 28.4 °F - 24.8 °F 86% 30.31 in 10.0 mi Calm Calm - N/A   Clear
4:55 AM 28.4 °F - 24.8 °F 86% 30.31 in 10.0 mi Calm Calm - N/A   Clear
5:15 AM 28.4 °F - 26.6 °F 93% 30.31 in 10.0 mi Calm Calm - N/A   Clear
5:35 AM 28.4 °F - 26.6 °F 93% 30.31 in 10.0 mi Calm Calm - N/A   Clear
5:55 AM 28.4 °F - 26.6 °F 93% 30.31 in 10.0 mi Calm Calm - N/A   Clear
6:15 AM 28.4 °F - 26.6 °F 93% 30.32 in 10.0 mi Calm Calm - N/A   Clear
6:35 AM 28.4 °F - 24.8 °F 86% 30.31 in 10.0 mi Calm Calm - N/A   Clear
6:55 AM 28.4 °F - 24.8 °F 86% 30.31 in 10.0 mi Calm Calm - N/A   Clear
7:15 AM 28.4 °F - 24.8 °F 86% 30.31 in 10.0 mi Calm Calm - N/A   Clear
7:35 AM 26.6 °F - 24.8 °F 93% 30.31 in 10.0 mi Calm Calm - N/A   Clear
7:55 AM 26.6 °F 21.2 °F 24.8 °F 93% 30.31 in 10.0 mi ESE 4.6 mph - N/A   Clear
8:15 AM 30.2 °F 25.4 °F 24.8 °F 80% 30.30 in 10.0 mi SE 4.6 mph - N/A   Clear
8:35 AM 32.0 °F 27.5 °F 26.6 °F 80% 30.31 in 10.0 mi SE 4.6 mph - N/A   Clear
8:55 AM 35.6 °F 32.8 °F 26.6 °F 70% 30.32 in 10.0 mi ESE 3.5 mph - N/A   Clear
9:15 AM 35.6 °F 32.8 °F 26.6 °F 70% 30.32 in 10.0 mi ESE 3.5 mph - N/A   Clear
9:35 AM 39.2 °F - 28.4 °F 65% 30.32 in 10.0 mi Calm Calm - N/A   Clear
9:55 AM 42.8 °F 41.1 °F 28.4 °F 57% 30.33 in 10.0 mi SSE 3.5 mph - N/A   Clear
10:15 AM 42.8 °F 39.3 °F 28.4 °F 57% 30.32 in 10.0 mi SE 5.8 mph - N/A   Clear
10:35 AM 44.6 °F 40.2 °F 30.2 °F 57% 30.32 in 10.0 mi SE 8.1 mph - N/A   Clear
10:55 AM 46.4 °F 44.3 °F 28.4 °F 50% 30.32 in 10.0 mi SSE 4.6 mph - N/A   Clear
11:15 AM 48.2 °F - 28.4 °F 46% 30.31 in 10.0 mi SE 4.6 mph - N/A   Clear
11:35 AM 50.0 °F - 28.4 °F 43% 30.31 in 10.0 mi SSE 6.9 mph - N/A   Clear
11:55 AM 51.8 °F - 28.4 °F 41% 30.30 in 10.0 mi SSW 3.5 mph - N/A   Clear
12:15 PM 51.8 °F - 28.4 °F 41% 30.30 in 10.0 mi South 5.8 mph - N/A   Clear
12:35 PM 51.8 °F - 28.4 °F 41% 30.28 in 10.0 mi Calm Calm - N/A   Clear
12:55 PM 53.6 °F - 28.4 °F 38% 30.27 in 10.0 mi SW 4.6 mph - N/A   Clear
1:15 PM 53.6 °F - 28.4 °F 38% 30.25 in 10.0 mi Calm Calm - N/A   Clear
1:35 PM 53.6 °F - 28.4 °F 38% 30.24 in 10.0 mi Calm Calm - N/A   Clear
1:55 PM 55.4 °F - 28.4 °F 36% 30.23 in 10.0 mi Calm Calm - N/A   Clear
2:15 PM 55.4 °F - 28.4 °F 36% 30.23 in 10.0 mi SSE 6.9 mph - N/A   Clear
2:35 PM 55.4 °F - 26.6 °F 33% 30.23 in 10.0 mi SSW 3.5 mph - N/A   Clear
2:55 PM 55.4 °F - 26.6 °F 33% 30.22 in 10.0 mi Calm Calm - N/A   Clear
3:15 PM 55.4 °F - 24.8 °F 31% 30.21 in 10.0 mi Calm Calm - N/A   Clear
3:35 PM 55.4 °F - 26.6 °F 33% 30.21 in 10.0 mi SW 3.5 mph - N/A   Clear
3:55 PM 55.4 °F - 26.6 °F 33% 30.20 in 10.0 mi SSE 3.5 mph - N/A   Clear
4:15 PM 55.4 °F - 26.6 °F 33% 30.21 in 10.0 mi SE 3.5 mph - N/A   Clear
4:35 PM 53.6 °F - 26.6 °F 35% 30.21 in 10.0 mi Calm Calm - N/A   Clear
4:55 PM 51.8 °F - 28.4 °F 41% 30.21 in 10.0 mi Calm Calm - N/A   Clear
5:15 PM 50.0 °F - 30.2 °F 47% 30.20 in 10.0 mi Calm Calm - N/A   Clear
5:35 PM 50.0 °F - 30.2 °F 47% 30.19 in 10.0 mi Calm Calm - N/A   Clear
5:55 PM 48.2 °F - 30.2 °F 50% 30.19 in 10.0 mi Calm Calm - N/A   Clear
6:15 PM 50.0 °F - 28.4 °F 43% 30.19 in 10.0 mi Calm Calm - N/A   Clear
6:35 PM 46.4 °F - 33.8 °F 62% 30.20 in 10.0 mi Calm Calm - N/A   Clear
6:55 PM 44.6 °F - 33.8 °F 66% 30.20 in 10.0 mi Calm Calm - N/A   Clear
7:15 PM 46.4 °F 45.2 °F 32.0 °F 57% 30.20 in 10.0 mi East 3.5 mph - N/A   Clear
7:35 PM 48.2 °F - 32.0 °F 54% 30.21 in 10.0 mi Calm Calm - N/A   Clear
7:55 PM 46.4 °F - 32.0 °F 57% 30.22 in 10.0 mi Calm Calm - N/A   Clear
8:15 PM 48.2 °F - 30.2 °F 50% 30.22 in 10.0 mi Calm Calm - N/A   Clear
8:35 PM 46.4 °F - 32.0 °F 57% 30.23 in 10.0 mi Calm Calm - N/A   Clear
8:55 PM 48.2 °F - 30.2 °F 50% 30.23 in 10.0 mi Calm Calm - N/A   Clear
9:15 PM 46.4 °F - 32.0 °F 57% 30.21 in 10.0 mi Calm Calm - N/A   Clear
9:35 PM 46.4 °F 45.2 °F 32.0 °F 57% 30.20 in 10.0 mi East 3.5 mph - N/A   Clear
9:55 PM 46.4 °F 45.2 °F 32.0 °F 57% 30.19 in 10.0 mi ENE 3.5 mph - N/A   Clear
10:15 PM 46.4 °F - 32.0 °F 57% 30.18 in 10.0 mi Calm Calm - N/A   Scattered Clouds
10:35 PM 46.4 °F - 32.0 °F 57% 30.19 in 10.0 mi Calm Calm - N/A   Mostly Cloudy
10:55 PM 46.4 °F - 32.0 °F 57% 30.20 in 10.0 mi Calm Calm - N/A   Overcast
11:15 PM 46.4 °F - 32.0 °F 57% 30.19 in 10.0 mi Calm Calm - N/A   Mostly Cloudy
11:35 PM 46.4 °F 45.2 °F 33.8 °F 62% 30.18 in 10.0 mi NE 3.5 mph - N/A   Scattered Clouds
11:55 PM 46.4 °F - 33.8 °F 62% 30.18 in 10.0 mi Calm Calm - N/A   Clear